This is the latest recevied weather packets stored in our database for station/object KF4LQQ-13. If no packets are shown the sender has not sent any weather packets the latest 1 day(s).
| Time | Temp. | Humidity | Pressure | Rain* | Wind** | Luminosity | Snow |
|---|---|---|---|---|---|---|---|
| 1836274472 | 27.22° C | - | 1013.9 hPa | 0 mm | 2.24 m/s, 121° | - | - |
| 1836274393 | 27.22° C | - | 1013.9 hPa | 0 mm | 2.24 m/s, 121° | - | - |
| 1836274244 | 26.67° C | - | 1014 hPa | 0 mm | 2.24 m/s, 143° | - | - |
| 1778041007 | 25° C | - | 1013.8 hPa | 0 mm | 2.24 m/s, 66° | - | - |
| 1778040437 | 25° C | - | 1013.7 hPa | 0 mm | 2.24 m/s, 53° | - | - |
| 1778040407 | 25° C | - | 1013.7 hPa | 0 mm | 2.24 m/s, 53° | - | - |
| 1778039806 | 25° C | - | 1014 hPa | 0 mm | 2.24 m/s, 98° | - | - |
| 1778039322 | 25° C | - | 1013.8 hPa | 0 mm | 3.13 m/s, 107° | - | - |
| 1778039206 | 25° C | - | 1013.8 hPa | 0 mm | 3.13 m/s, 107° | - | - |
| 1778038606 | 25° C | - | 1013.8 hPa | 0 mm | 3.13 m/s, 53° | - | - |
| 1778038005 | 25° C | - | 1013.9 hPa | 0 mm | 3.13 m/s, 66° | - | - |
| 1778037404 | 25° C | - | 1013.8 hPa | 0 mm | 1.34 m/s, 58° | - | - |
| 1778036804 | 25° C | - | 1013.7 hPa | 0 mm | 1.79 m/s, 63° | - | - |
| 1778036389 | 25° C | - | 1013.7 hPa | 0 mm | 0.45 m/s, 56° | - | - |
| 1778036204 | 25° C | - | 1013.7 hPa | 0 mm | 0.45 m/s, 56° | - | - |
| 1778035604 | 25° C | - | 1013.7 hPa | 0 mm | 0 m/s | - | - |
| 1778035003 | 25.56° C | - | 1013.5 hPa | 0 mm | 0 m/s | - | - |
| 1778034403 | 25.56° C | - | 1013.3 hPa | 0 mm | 0 m/s | - | - |
| 1778033864 | 25.56° C | - | 1013.2 hPa | 0 mm | 0 m/s | - | - |
| 1778033803 | 25.56° C | - | 1013.2 hPa | 0 mm | 0 m/s | - | - |
| 1778033202 | 26.11° C | - | 1013.3 hPa | 0 mm | 2.68 m/s, 24° | - | - |
| 1778032893 | 26.11° C | - | 1013 hPa | 0 mm | 2.68 m/s, 352° | - | - |
| 1778032602 | 26.11° C | - | 1013.2 hPa | 0 mm | 2.24 m/s, 15° | - | - |
| 1778032002 | 26.11° C | - | 1013.1 hPa | 0 mm | 2.24 m/s, 356° | - | - |
| 1778031402 | 26.11° C | - | 1013 hPa | 0 mm | 2.68 m/s, 352° | - | - |
* Rain since midnight (hover to see other rain measurements)
** Current wind speed in m/s (hover to see current wind gust speed)